Meteo Giornale » Osservazioni meteo Stati Uniti (USA) » Greenville
ore: 16:00 - Osservazioni Meteo Greenville
Lat. 31° 51' N Lon. 86° 37' W Alt. 138 metri s.l.m.
34 °C
Poco Nuvoloso
Temp. 24 Ore
22 °C
34 °C
Est
13 Km/h
Dew point 21 °C
Umidità 46 %
Visibilità 10 Km
Il sole sorge alle ore 06:21
Il sole tramonta alle ore 19:11
| Data e Ora | Cielo e Fenomeni | T °C | DP °C | Um. % | Pres. hPa | Vis. km | Vento km/h | |
|---|---|---|---|---|---|---|---|---|
| Oggi h: 16:00 | Poco Nuvoloso | 34 | 21 | 46 | 1017 | 10 | E 13 | |
| Oggi h: 15:00 | Sereno | 34 | 21 | 46 | 1017 | 10 | E/SE 13 | |
| Oggi h: 14:00 | Poco Nuvoloso | 33 | 21 | 49 | 1018 | 10 | E/NE 9.3 | |
| Oggi h: 13:00 | Molto Nuvoloso | 33 | 22 | 52 | 1019 | 10 | E/NE 11.1 | |
| Oggi h: 12:00 | Sereno | 32 | 22 | 55 | 1019 | 10 | N 7.4 | |
| Oggi h: 11:00 | Sereno | 31 | 22 | 58 | 1019 | 10 | E 13 | |
| Oggi h: 10:00 | Sereno | 29 | 23 | 70 | 1020 | 10 | NE 9.3 | |
| Oggi h: 09:00 | Sereno | 27 | 23 | 78 | 1020 | 10 | E 9.3 | |
| Oggi h: 08:00 | Sereno | 25 | 23 | 88 | 1019 | 10 | E/NE 7.4 | |
| Oggi h: 07:00 | Sereno | 23 | 22 | 94 | 1019 | 10 | N 0 | |
| Oggi h: 06:00 | Sereno | 22 | 21 | 94 | 1018 | 10 | N 0 | |
| Oggi h: 05:00 | Sereno | 22 | 21 | 94 | 1018 | 10 | N 0 | |
| Oggi h: 04:00 | Sereno | 22 | 22 | 100 | 1018 | 10 | N 0 | |
| Oggi h: 03:00 | Sereno | 23 | 22 | 94 | 1018 | 10 | N 0 | |
| Oggi h: 02:00 | Sereno | 23 | 22 | 94 | 1018 | 10 | N 0 | |
| Oggi h: 01:00 | Sereno | 23 | 22 | 94 | 1018 | 10 | N 0 | |
| Oggi h: 00:00 | Sereno | 24 | 23 | 94 | 1018 | 10 | N 0 | |
| Ieri h: 23:00 | Sereno | 24 | 23 | 94 | 1018 | 10 | N 0 | |
| Ieri h: 22:00 | Poco Nuvoloso | 24 | 23 | 94 | 1018 | 10 | N 0 | |
| Ieri h: 21:00 | Sereno | 25 | 24 | 94 | 1018 | 10 | N 0 | |
| Ieri h: 20:00 | Poco Nuvoloso | 26 | 24 | 88 | 1017 | 10 | N 5.5 | |
| Ieri h: 19:03 | Coperto | 26 | 23 | 83 | 1017 | 10 | NO 7.4 | |
| Ieri h: 19:00 | Pioggia | 27 | 22 | 74 | 1017 | 10 | O/NO 9.3 | |
| Ieri h: 18:48 | Pioggia | 28 | 21 | 65 | 1017 | 3 | N 5.5 | |
| Ieri h: 18:00 | Poco Nuvoloso | 32 | 21 | 52 | 1016 | 10 | N 0 | |
| Ieri h: 17:00 | Molto Nuvoloso | 32 | 22 | 55 | 1016 | 10 | E 7.4 | |



